Preview of NWS' New Version of Forecast
This preview is not operational and should not be used for support decisions.

Regional Weather Roundup (RWR)

Issued by National Weather Service (NWS)

                            
000
ASUS45 KCYS 242210
RWRWY 

WYOMING REGIONAL WEATHER ROUNDUP
NATIONAL WEATHER SERVICE CHEYENNE WY
400 PM MDT SAT AUG 24 2019

NOTE:  "FAIR" INDICATES FEW OR NO CLOUDS BELOW 12,000 FEET
WITH NO SIGNIFICANT WEATHER AND/OR OBSTRUCTIONS TO VISIBILITY.

WYZ001-242300-
YELLOWSTONE NATIONAL PARK
  
CITY           SKY/WX    TMP DP  RH WIND       PRES   REMARKS
LK YELLOWSTONE   N/A     70  29  21 SW9       30.19S                  
W YELLOWSTONE  NOT AVBL                                               

$$
WYZ002>013-054>058-071-098>099-242300-
NORTHERN WYOMING
  
CITY           SKY/WX    TMP DP  RH WIND       PRES   REMARKS
JACKSON        FAIR      80  33  18 SW20G26   30.09F                  
CODY           FAIR      80  49  33 NE10      29.94F                  
GREYBULL       FAIR      85  44  23 E6        29.86F                  
WORLAND        FAIR      85  43  22 NE7       29.89F                  
SHERIDAN       FAIR      80  54  40 S6        29.90S                  
BUFFALO        FAIR      77  48  35 N8          N/A                   
GILLETTE       FAIR      81  48  31 N10       29.92S                  
HULETT         FAIR      79  54  41 CALM      29.94R                  
NEWCASTLE      FAIR      79  48  34 SW6G20    29.93                   

$$
WYZ014>020-022>026-101>103-242300-
CENTRAL WYOMING
  
CITY           SKY/WX    TMP DP  RH WIND       PRES   REMARKS
BIG PINEY      FAIR      80  30  16 VRB7G20   30.14F                  
PINEDALE       FAIR      81  28  15 NW12G21   30.15F                  
DUBOIS         FAIR      77  28  16 NW15G23   30.10                   
LANDER         FAIR      86  40  19 E6G17     29.97F                  
RIVERTON       FAIR      83  39  21 SE5       29.97F                  
CASPER         FAIR      84  35  17 NW10G21   29.98F                  
DOUGLAS        FAIR      86  38  18 W15G23    29.96F                  

$$
WYZ021-027>030-104>119-242300-
SOUTHERN WYOMING
  
CITY           SKY/WX    TMP DP  RH WIND       PRES   REMARKS
EVANSTON       FAIR      81  29  15 W25G32    30.21S                  
KEMMERER       FAIR      79  25  13 W24G30    30.18                   
ROCK SPRINGS   FAIR      83  29  14 W21G32    30.12F                  
DIXON          FAIR      83  23  11 W13G20    30.14F                  
RAWLINS        FAIR      84  25  11 W22G29    30.11F                  
SARATOGA       FAIR      81  27  13 W17G24    30.14F                  
LARAMIE        FAIR      79  28  15 NW22G30   30.13F                  
CHEYENNE       FAIR      82  30  15 NW22G31   30.05S                  
TORRINGTON     FAIR      82  52  35 VRB5      29.91F                  
PINE BLUFFS    FAIR      79  46  31 NE7       30.01S                  

$$